Time,TemperatureF,DewpointF,PressureIn,WindDirection,WindDirectionDegrees,WindSpeedMPH,WindSpeedGustMPH,Humidity,HourlyPrecipIn,Conditions,Clouds,dailyrainin,SolarRadiationWatts/m^2,SoftwareType,DateUTC
2013-05-31 00:00:00,72.1,60.1,29.89,ENE,59,4.0,4.0,66,0.00,,,0.00,0,Wunderground v.1.15,2013-05-31 10:00:00,
2013-05-31 00:30:00,71.8,60.2,29.88,East,84,3.0,3.0,67,0.00,,,0.00,0,Wunderground v.1.15,2013-05-31 10:30:00,
2013-05-31 01:00:00,71.5,60.4,29.87,ENE,66,4.0,5.0,68,0.00,,,0.00,0,Wunderground v.1.15,2013-05-31 11:00:00,
2013-05-31 01:30:00,71.3,61.0,29.86,East,84,4.0,4.0,70,0.00,,,0.00,0,Wunderground v.1.15,2013-05-31 11:30:00,
2013-05-31 02:00:00,71.5,61.2,29.85,ESE,103,2.0,3.0,70,0.00,,,0.00,0,Wunderground v.1.15,2013-05-31 12:00:00,
2013-05-31 02:30:00,70.4,62.1,29.85,ESE,104,1.0,2.0,75,0.00,,,0.00,0,Wunderground v.1.15,2013-05-31 12:30:00,
2013-05-31 03:00:00,69.4,61.1,29.85,ESE,104,2.0,2.0,75,0.00,,,0.00,0,Wunderground v.1.15,2013-05-31 13:00:00,
2013-05-31 03:30:00,69.1,60.5,29.84,ESE,104,2.0,3.0,74,0.00,,,0.00,0,Wunderground v.1.15,2013-05-31 13:30:00,
2013-05-31 04:00:00,67.9,60.4,29.84,SE,135,4.0,4.0,77,0.00,,,0.00,0,Wunderground v.1.15,2013-05-31 14:00:00,
2013-05-31 04:30:00,67.3,60.2,29.84,SE,134,3.0,3.0,78,0.00,,,0.00,0,Wunderground v.1.15,2013-05-31 14:30:00,
2013-05-31 05:00:00,66.6,59.2,29.85,SE,133,3.0,3.0,77,0.00,,,0.00,0,Wunderground v.1.15,2013-05-31 15:00:00,
2013-05-31 05:30:00,66.1,59.4,29.86,SE,133,2.0,2.0,79,0.00,,,0.00,0,Wunderground v.1.15,2013-05-31 15:30:00,
2013-05-31 06:00:00,66.0,59.7,29.86,SE,133,0.0,2.0,80,0.00,,,0.00,18,Wunderground v.1.15,2013-05-31 16:00:00,
2013-05-31 06:30:00,66.8,60.1,29.88,SE,133,1.0,3.0,79,0.00,,,0.00,100,Wunderground v.1.15,2013-05-31 16:30:00,
2013-05-31 07:00:00,69.6,61.7,29.88,SE,133,0.0,0.0,76,0.00,,,0.00,197,Wunderground v.1.15,2013-05-31 17:00:00,
2013-05-31 07:30:00,73.3,62.1,29.89,SE,133,0.0,0.0,68,0.00,,,0.00,316,Wunderground v.1.15,2013-05-31 17:30:00,
2013-05-31 08:00:00,78.5,62.5,29.88,ENE,77,1.0,1.0,58,0.00,,,0.00,367,Wunderground v.1.15,2013-05-31 18:00:00,
2013-05-31 08:30:00,80.1,63.0,29.88,ENE,77,0.0,0.0,56,0.00,,,0.00,195,Wunderground v.1.15,2013-05-31 18:30:00,
2013-05-31 09:00:00,79.2,63.6,29.88,North,350,1.0,1.0,59,0.00,,,0.00,345,Wunderground v.1.15,2013-05-31 19:00:00,
2013-05-31 09:30:00,81.8,68.0,29.88,NW,322,2.0,7.0,63,0.00,,,0.00,779,Wunderground v.1.15,2013-05-31 19:30:00,
2013-05-31 10:00:00,80.3,67.9,29.88,WNW,296,5.0,5.0,66,0.00,,,0.00,534,Wunderground v.1.15,2013-05-31 20:00:00,
2013-05-31 10:30:00,81.8,68.0,29.87,NW,306,3.0,4.0,63,0.00,,,0.00,438,Wunderground v.1.15,2013-05-31 20:30:00,
2013-05-31 11:00:00,80.5,68.5,29.88,NNW,327,4.0,5.0,67,0.00,,,0.00,443,Wunderground v.1.15,2013-05-31 21:00:00,
2013-05-31 11:30:00,81.1,69.1,29.87,WNW,285,5.0,10.0,67,0.00,,,0.00,1155,Wunderground v.1.15,2013-05-31 21:30:00,
2013-05-31 12:00:00,81.2,69.2,29.87,WNW,296,4.0,4.0,67,0.00,,,0.00,394,Wunderground v.1.15,2013-05-31 22:00:00,
2013-05-31 12:30:00,79.6,69.0,29.86,WNW,289,4.0,5.0,70,0.00,,,0.00,341,Wunderground v.1.15,2013-05-31 22:30:00,
2013-05-31 13:00:00,79.2,68.6,29.86,NNW,327,4.0,4.0,70,0.00,,,0.00,420,Wunderground v.1.15,2013-05-31 23:00:00,
2013-05-31 13:30:00,79.8,68.3,29.85,NW,321,4.0,5.0,68,0.00,,,0.00,352,Wunderground v.1.15,2013-05-31 23:30:00,
2013-05-31 14:00:00,79.8,68.3,29.85,WNW,287,4.0,4.0,68,0.00,,,0.00,216,Wunderground v.1.15,2013-06-01 00:00:00,
2013-05-31 14:30:00,79.0,68.0,29.85,WNW,290,4.0,4.0,69,0.00,,,0.00,192,Wunderground v.1.15,2013-06-01 00:30:00,
2013-05-31 15:00:00,78.5,67.9,29.84,WNW,291,2.0,2.0,70,0.00,,,0.00,109,Wunderground v.1.15,2013-06-01 01:00:00,
2013-05-31 15:30:00,77.6,68.3,29.85,WNW,289,4.0,4.0,73,0.00,,,0.00,79,Wunderground v.1.15,2013-06-01 01:30:00,
2013-05-31 16:00:00,77.0,68.9,29.86,WNW,289,1.0,1.0,76,0.00,,,0.00,30,Wunderground v.1.15,2013-06-01 02:00:00,
2013-05-31 16:30:00,75.8,68.8,29.87,WNW,289,3.0,3.0,79,0.00,,,0.01,37,Wunderground v.1.15,2013-06-01 02:30:00,
2013-05-31 17:00:00,74.9,69.0,29.88,WNW,289,0.0,0.0,82,0.00,,,0.03,37,Wunderground v.1.15,2013-06-01 03:00:00,
2013-05-31 17:30:00,74.6,69.4,29.89,WNW,289,0.0,0.0,84,0.00,,,0.04,77,Wunderground v.1.15,2013-06-01 03:30:00,
2013-05-31 18:00:00,74.4,69.2,29.89,WNW,289,0.0,0.0,84,0.00,,,0.04,35,Wunderground v.1.15,2013-06-01 04:00:00,
2013-05-31 18:30:00,74.7,69.9,29.90,WNW,289,0.0,0.0,85,0.00,,,0.04,11,Wunderground v.1.15,2013-06-01 04:30:00,
2013-05-31 19:00:00,74.0,67.4,29.91,WNW,290,1.0,3.0,80,0.00,,,0.04,0,Wunderground v.1.15,2013-06-01 05:00:00,
2013-05-31 19:30:00,74.2,65.4,29.91,NE,40,2.0,6.0,74,0.00,,,0.04,0,Wunderground v.1.15,2013-06-01 05:30:00,
2013-05-31 20:00:00,74.0,65.6,29.91,East,87,2.0,5.0,75,0.00,,,0.04,0,Wunderground v.1.15,2013-06-01 06:00:00,
2013-05-31 20:30:00,73.9,65.1,29.91,East,90,6.0,6.0,74,0.00,,,0.04,0,Wunderground v.1.15,2013-06-01 06:30:00,
2013-05-31 21:00:00,73.7,65.3,29.91,East,97,6.0,6.0,75,0.00,,,0.04,0,Wunderground v.1.15,2013-06-01 07:00:00,
2013-05-31 21:30:00,73.2,64.8,29.91,East,92,5.0,5.0,75,0.00,,,0.04,0,Wunderground v.1.15,2013-06-01 07:30:00,
2013-05-31 22:00:00,73.3,64.9,29.92,East,95,5.0,5.0,75,0.00,,,0.04,0,Wunderground v.1.15,2013-06-01 08:00:00,
2013-05-31 22:30:00,73.2,64.4,29.93,ENE,72,5.0,5.0,74,0.00,,,0.04,0,Wunderground v.1.15,2013-06-01 08:30:00,
2013-05-31 23:00:00,73.2,64.0,29.92,ENE,74,3.0,5.0,73,0.00,,,0.04,0,Wunderground v.1.15,2013-06-01 09:00:00,
2013-05-31 23:30:00,73.5,63.5,29.92,NE,53,4.0,4.0,71,0.00,,,0.04,0,Wunderground v.1.15,2013-06-01 09:30:00,